Home   Weather   Buxar   Past weeks

Flag for India Past Weather in Buxar, Bihar, India — Yesterday and Last 2 Weeks

Now
91 °F

Haze.


Feels Like: 105 °F
Forecast: 81 / 105 °F
Wind: 3 mph from Northeast

Location: Lucknow / Amausi

Current Time: Apr 23, 2017 at 11:30:44 am

Latest Report: Apr 23, 2017 at 10:30 am


Visibility: 2 mi

Pressure: 29.68 "Hg

Humidity: 63%

Dew Point: 77 °F

Location of BuxarLocation

Past Weather in Buxar — Graph

°F

Buxar Temperature Yesterday

Maximum temperature yesterday: 102 °F (at 4:30 pm)
Minimum temperature yesterday: 82 °F (at 5:00 am)
Average temperature yesterday: 91 °F

High & Low Weather Summary for the Past Weeks

 TemperatureHumidityPressure
High109 °F (Apr 15, 4:00 pm)89% (Apr 20, 5:00 am)29.86 "Hg (Apr 20, 5:00 am)
Low63 °F (Apr 10, 6:00 am)10% (Apr 9, 2:30 pm)29.47 "Hg (Apr 20, 4:00 pm)
Average89 °F41%29.66 "Hg
* Reported Apr 8 9:30 am — Apr 23 10:00 am, Buxar, Weather by CustomWeather, © 2017

Note: Actual official high and low records may vary slightly from our data, if they occured in-between our weather recording intervals... More about our weather records

Advertising

Buxar Weather History for the Previous 24 Hours

Scroll right to see more
 ConditionsComfort  
Time TempWeatherWind HumidityBarometerVisibility
10:00 am
Sun, Apr 23
91 °FHaze.3 mph63%29.68 "Hg2 mi
9:30 am90 °FHaze.3 mph59%29.68 "Hg2 mi
8:30 am86 °FHaze.5 mph70%29.65 "Hg2 mi
8:00 am84 °FHaze.3 mph74%29.65 "Hg2 mi
7:30 am84 °FHaze.5 mph74%29.65 "Hg2 mi
7:00 am82 °FHaze.3 mph79%29.62 "Hg1 mi
6:30 am82 °FHaze.5 mph79%29.62 "Hg1 mi
6:00 am82 °FHaze.5 mph79%29.59 "Hg1 mi
5:30 am82 °FHaze.5 mph74%29.59 "Hg1 mi
5:00 am82 °FHaze.3 mph74%29.56 "Hg1 mi
4:00 am84 °FHaze.3 mph70%29.56 "Hg1 mi
3:00 am86 °FHaze.5 mph70%29.59 "Hg1 mi
2:00 am86 °FHaze.3 mph70%29.56 "Hg1 mi
1:00 am88 °FHaze.5 mph66%29.59 "Hg1 mi
12:00 am90 °FPassing clouds.5 mph63%29.59 "Hg1 mi
11:00 pm
Sat, Apr 22
91 °FPassing clouds.5 mph63%29.59 "Hg1 mi
10:00 pm93 °FPassing clouds.6 mph59%29.59 "Hg1 mi
9:00 pm93 °FPassing clouds.5 mph59%29.56 "Hg1 mi
8:30 pm95 °FPassing clouds.2 mph56%29.56 "Hg1 mi
8:00 pm97 °FPassing clouds.2 mph50%29.56 "Hg1 mi
7:30 pm97 °FPassing clouds.2 mph50%29.53 "Hg1 mi
7:00 pm99 °FHaze.No wind44%29.53 "Hg1 mi
6:30 pm100 °FHaze.No wind42%29.50 "Hg1 mi
6:00 pm100 °FHaze.2 mph42%29.50 "Hg2 mi
4:30 pm102 °FHaze.2 mph45%29.50 "Hg2 mi
2:30 pm100 °FHaze.3 mph50%29.53 "Hg2 mi
2:00 pm99 °FHaze.2 mph53%29.56 "Hg2 mi
1:30 pm99 °FHaze.3 mph53%29.59 "Hg2 mi
1:00 pm97 °FHaze.5 mph56%29.62 "Hg2 mi
12:30 pm95 °FHaze.6 mph60%29.65 "Hg1 mi
12:00 pm95 °FScattered clouds.5 mph60%29.65 "Hg1 mi
11:30 am93 °FScattered clouds.3 mph63%29.68 "Hg1 mi
11:00 am91 °FScattered clouds.3 mph67%29.68 "Hg1 mi
Weather by CustomWeather, © 2017

See weather overviewHow to use our weather pages